Regional Weather Roundup
Issued by NWS

Home | Current Version | Previous Version | Graphics & Text | Print | Product List | Glossary On
Versions: 1 2 3 4 5 6 7 8 9 10 11 12 13 14 15 16 17 18 19 20 21 22 23 24 25 26 27 28 29 30 31 32 33 34 35 36 37 38 39 40 41 42 43 44 45 46 47 48 49 50
000
ASUS44 KMEG 041210
RWRTN
TENNESSEE HOURLY STATE WEATHER ROUNDUP
NATIONAL WEATHER SERVICE MEMPHIS TN
700 AM CDT FRI SEP 04 2015

TNZ002-004-019-021-049-052-054-088>092-041300-
WEST TENNESSEE

CITY           SKY/WX    TMP DP  RH WIND       PRES   REMARKS
MEMPHIS INTL   PTCLDY    74  69  85 S5        30.00R
NWS MEMPHIS      N/A     71 N/A N/A MISG        N/A
JACKSON        CLEAR     68  67  96 CALM      30.01R FOG
DYERSBURG      CLEAR     70  70 100 NE5       30.01R
UNION CITY     CLEAR    N/A N/A N/A CALM      30.00R
PARIS          CLEAR     64  64 100 CALM      30.02R
LEXINGTON      CLEAR     68  66  94 CALM      30.01R
$$

TNZ008-025-027-028-033-062-065-066-041300-
NORTH MIDDLE TENNESSEE

CITY           SKY/WX    TMP DP  RH WIND       PRES   REMARKS
NASHVILLE      CLEAR     73  67  81 CALM      30.04R
CLARKSVILLE    CLEAR     67  66  97 CALM      30.03R FOG
SMYRNA         CLEAR     67  67 100 CALM      30.04R FOG
COOKEVILLE     CLEAR     64  64 100 CALM      30.05R
CROSSVILLE     CLEAR     66  63  90 CALM      30.10R FOG
$$

TNZ061-075-076-078-094-096-097-041300-
SOUTH MIDDLE TENNESSEE

CITY           SKY/WX    TMP DP  RH WIND       PRES   REMARKS
FAYETTEVILLE   CLEAR     68  68 100 CALM      30.04R
TULLAHOMA      CLEAR     66  64  94 CALM      30.06R
WINCHESTER     CLEAR     66  64  94 CALM      30.05R
MCMINNVILLE    CLEAR     66  66 100 CALM      30.06R
COLUMBIA       CLEAR    N/A N/A N/A CALM      30.02R
SHELBYVILLE    CLEAR     70  70 100 E3        30.05R
$$

TNZ017-018-042-046-047-041300-
NORTHEAST TENNESSEE

CITY           SKY/WX    TMP DP  RH WIND       PRES   REMARKS
TRI CITIES     SUNNY     65  63  93 CALM      30.09R FOG
ELIZABETHTON   SUNNY     64  63  94 CALM      30.10R
$$

TNZ012-013-036-069-073-074-041300-
CENTRAL EAST TENNESSEE

CITY           SKY/WX    TMP DP  RH WIND       PRES   REMARKS
KNOXVILLE      CLEAR     68  68 100 CALM      30.04R FOG
OAK RIDGE      CLEAR     69  66  90 CALM      30.06R FOG
GATLINBURG     SUNNY     64  63  94 CALM      30.05R
MORRISTOWN     SUNNY     70  66  88 CALM      30.08R
$$

TNZ083-085-099-041300-
SOUTHEAST TENNESSEE

CITY           SKY/WX    TMP DP  RH WIND       PRES   REMARKS
CHATTANOOGA    PTCLDY    71  67  87 CALM      30.03R
$$

SKY/WX REPORTED AS FAIR MEANS FEW OR NO CLOUDS BELOW
12 THOUSAND FEET.



USA.gov is the U.S. government's official web portal to all federal, state and local government web resources and services.